StationID,Date,MaxTemp,MinTemp,Precipitation,Snowfall,SnowDepth
"CA002203100","1953-08-01",71.96,42.08,0.00,0.00,
"CA002203100","1953-08-02",77.00,46.94,0.00,0.00,
"CA002203100","1953-08-03",82.04,46.94,0.00,0.00,
"CA002203100","1953-08-04",87.98,59.00,0.00,0.00,
"CA002203100","1953-08-05",92.12,58.10,0.00,0.00,
"CA002203100","1953-08-06",85.10,66.02,0.00,0.00,
"CA002203100","1953-08-07",93.02,60.08,15.00,0.00,
"CA002203100","1953-08-08",85.10,62.06,15.00,0.00,
"CA002203100","1953-08-09",69.08,59.00,3.00,0.00,
"CA002203100","1953-08-10",69.08,53.06,0.00,0.00,
"CA002203100","1953-08-11",71.06,50.00,5.00,0.00,
"CA002203100","1953-08-12",62.06,53.06,20.00,0.00,
"CA002203100","1953-08-13",69.98,46.94,0.00,0.00,
"CA002203100","1953-08-14",77.00,44.06,0.00,0.00,
"CA002203100","1953-08-15",87.08,49.10,0.00,0.00,
"CA002203100","1953-08-16",89.06,53.06,0.00,0.00,
"CA002203100","1953-08-17",64.94,57.02,0.00,0.00,
"CA002203100","1953-08-18",77.00,44.96,127.00,0.00,
"CA002203100","1953-08-19",77.00,46.94,140.00,0.00,
"CA002203100","1953-08-20",78.08,58.10,178.00,0.00,
"CA002203100","1953-08-21",58.10,55.04,3.00,0.00,
"CA002203100","1953-08-22",62.96,50.00,20.00,0.00,
"CA002203100","1953-08-23",69.08,46.04,38.00,0.00,
"CA002203100","1953-08-24",60.98,51.08,0.00,0.00,
"CA002203100","1953-08-25",59.00,48.02,0.00,0.00,
"CA002203100","1953-08-26",58.10,42.08,0.00,0.00,
"CA002203100","1953-08-27",68.00,37.04,0.00,0.00,
"CA002203100","1953-08-28",71.06,42.98,0.00,0.00,
"CA002203100","1953-08-29",68.00,46.94,76.00,0.00,
"CA002203100","1953-08-30",53.06,42.98,178.00,0.00,
"CA002203100","1953-08-31",50.00,44.06,198.00,0.00,
"CA002203100","1953-09-01",55.04,44.06,5.00,0.00,
"CA002203100","1953-09-02",57.02,44.06,0.00,0.00,
"CA002203100","1953-09-03",60.98,39.92,25.00,0.00,
"CA002203100","1953-09-04",55.94,49.10,0.00,0.00,
"CA002203100","1953-09-05",58.10,42.98,0.00,0.00,
"CA002203100","1953-09-06",60.98,44.06,0.00,0.00,
"CA002203100","1953-09-07",71.06,42.08,0.00,0.00,
"CA002203100","1953-09-08",59.00,46.04,0.00,0.00,
"CA002203100","1953-09-09",58.10,39.92,0.00,0.00,
"CA002203100","1953-09-10",57.02,44.96,0.00,0.00,
"CA002203100","1953-09-11",60.08,41.00,0.00,0.00,
"CA002203100","1953-09-12",64.94,44.96,0.00,0.00,
"CA002203100","1953-09-13",62.06,44.06,140.00,0.00,
"CA002203100","1953-09-14",58.10,51.98,33.00,0.00,
"CA002203100","1953-09-15",58.10,44.96,0.00,0.00,
"CA002203100","1953-09-16",53.96,44.96,140.00,0.00,
"CA002203100","1953-09-17",53.96,46.04,28.00,0.00,
"CA002203100","1953-09-18",44.96,39.02,23.00,0.00,
"CA002203100","1953-09-19",46.04,37.04,20.00,0.00,
"CA002203100","1953-09-20",51.08,35.96,0.00,0.00,
"CA002203100","1953-09-21",55.94,33.98,38.00,0.00,
"CA002203100","1953-09-22",46.04,37.94,43.00,0.00,
"CA002203100","1953-09-23",51.98,30.02,3.00,0.00,
"CA002203100","1953-09-24",53.96,33.08,0.00,0.00,
"CA002203100","1953-09-25",51.08,39.92,25.00,0.00,
"CA002203100","1953-09-26",46.94,35.06,0.00,0.00,
"CA002203100","1953-09-27",48.02,37.94,10.00,0.00,
"CA002203100","1953-09-28",46.04,35.06,74.00,0.00,
"CA002203100","1953-09-29",39.02,37.04,0.00,0.00,
"CA002203100","1953-09-30",42.08,28.94,0.00,0.00,
"CA002203100","1953-10-01",42.08,30.92,5.00,0.00,
"CA002203100","1953-10-02",41.00,35.96,18.00,0.00,
"CA002203100","1953-10-03",37.94,26.06,0.00,0.00,
"CA002203100","1953-10-04",41.00,26.06,0.00,0.00,
"CA002203100","1953-10-05",55.94,30.02,0.00,0.00,
"CA002203100","1953-10-06",57.02,33.08,0.00,0.00,
"CA002203100","1953-10-07",60.08,33.98,0.00,0.00,
"CA002203100","1953-10-08",53.96,33.98,46.00,0.00,
"CA002203100","1953-10-09",44.96,39.02,3.00,0.00,
"CA002203100","1953-10-10",39.92,33.98,30.00,0.00,
"CA002203100","1953-10-11",51.98,37.04,0.00,0.00,
"CA002203100","1953-10-12",59.00,37.94,0.00,0.00,
"CA002203100","1953-10-13",51.98,37.04,0.00,0.00,
"CA002203100","1953-10-14",57.02,35.96,0.00,0.00,
"CA002203100","1953-10-15",58.10,33.98,0.00,0.00,
"CA002203100","1953-10-16",44.96,32.00,36.00,0.00,
"CA002203100","1953-10-17",42.08,37.94,0.00,0.00,
"CA002203100","1953-10-18",41.00,37.04,0.00,0.00,
"CA002203100","1953-10-19",44.06,35.96,5.00,0.00,
"CA002203100","1953-10-20",53.06,37.04,0.00,0.00,
"CA002203100","1953-10-21",41.00,28.94,0.00,0.00,
"CA002203100","1953-10-22",53.06,26.96,0.00,0.00,
"CA002203100","1953-10-23",57.02,42.08,0.00,0.00,
"CA002203100","1953-10-24",28.04,21.92,76.00,76.00,
"CA002203100","1953-10-25",21.92,12.92,0.00,0.00,
"CA002203100","1953-10-26",30.02,10.94,13.00,13.00,
"CA002203100","1953-10-27",28.04,21.02,0.00,0.00,
"CA002203100","1953-10-28",19.04,12.02,86.00,86.00,
"CA002203100","1953-10-29",17.06,6.98,10.00,10.00,
"CA002203100","1953-10-30",17.06,1.04,0.00,0.00,
"CA002203100","1953-10-31",21.92,10.04,10.00,10.00,
"CA002203100","1953-11-01",30.02,19.04,8.00,8.00,
"CA002203100","1953-11-02",26.06,17.06,15.00,15.00,
"CA002203100","1953-11-03",28.94,10.04,0.00,0.00,
"CA002203100","1953-11-04",41.00,21.92,0.00,0.00,
"CA002203100","1953-11-05",28.04,21.02,15.00,15.00,
"CA002203100","1953-11-06",17.96,10.94,36.00,36.00,
"CA002203100","1953-11-07",14.90,-2.02,0.00,0.00,
"CA002203100","1953-11-08",17.96,5.00,3.00,3.00,
"CA002203100","1953-11-09",26.06,14.00,0.00,0.00,
"CA002203100","1953-11-10",24.98,3.92,0.00,0.00,
"CA002203100","1953-11-11",26.96,24.08,0.00,0.00,
"CA002203100","1953-11-12",33.08,24.98,0.00,0.00,
"CA002203100","1953-11-13",30.92,24.98,0.00,0.00,
"CA002203100","1953-11-14",30.02,19.04,0.00,0.00,
"CA002203100","1953-11-15",35.06,26.06,89.00,51.00,
"CA002203100","1953-11-16",26.06,24.08,127.00,127.00,
"CA002203100","1953-11-17",24.98,19.94,0.00,0.00,
"CA002203100","1953-11-18",21.02,1.94,0.00,0.00,
"CA002203100","1953-11-19",19.94,5.90,0.00,0.00,
"CA002203100","1953-11-20",19.94,8.06,0.00,0.00,
"CA002203100","1953-11-21",19.94,10.04,0.00,0.00,
"CA002203100","1953-11-22",23.00,17.96,64.00,64.00,
"CA002203100","1953-11-23",19.94,8.06,41.00,41.00,
"CA002203100","1953-11-24",12.02,1.04,0.00,0.00,
"CA002203100","1953-11-25",23.00,-2.02,5.00,5.00,
"CA002203100","1953-11-26",24.08,8.96,0.00,0.00,
"CA002203100","1953-11-27",26.96,14.00,0.00,0.00,
"CA002203100","1953-11-28",21.02,19.04,0.00,0.00,
"CA002203100","1953-11-29",17.96,12.02,0.00,0.00,
"CA002203100","1953-11-30",19.04,8.06,109.00,109.00,
"CA002203100","1953-12-01",14.90,-3.10,76.00,76.00,
"CA002203100","1953-12-02",5.00,-13.00,0.00,0.00,
"CA002203100","1953-12-03",5.00,-7.06,5.00,5.00,
"CA002203100","1953-12-04",5.00,-7.06,3.00,3.00,
"CA002203100","1953-12-05",12.02,-5.08,5.00,5.00,
"CA002203100","1953-12-06",8.96,1.94,64.00,64.00,
"CA002203100","1953-12-07",10.04,3.02,84.00,84.00,
"CA002203100","1953-12-08",3.02,-9.04,0.00,0.00,
"CA002203100","1953-12-09",8.96,-7.06,38.00,38.00,
"CA002203100","1953-12-10",6.98,3.02,0.00,0.00,
"CA002203100","1953-12-11",10.94,3.02,0.00,0.00,
"CA002203100","1953-12-12",10.94,6.98,41.00,41.00,
"CA002203100","1953-12-13",3.92,-2.02,25.00,25.00,
"CA002203100","1953-12-14",8.96,-2.02,53.00,53.00,
"CA002203100","1953-12-15",-0.94,-9.04,0.00,0.00,
"CA002203100","1953-12-16",12.02,-14.98,0.00,0.00,
"CA002203100","1953-12-17",12.02,-5.08,0.00,0.00,
"CA002203100","1953-12-18",10.94,-4.00,89.00,89.00,
"CA002203100","1953-12-19",8.06,5.00,0.00,0.00,
"CA002203100","1953-12-20",-0.04,-7.06,0.00,0.00,
"CA002203100","1953-12-21",14.90,-10.12,0.00,0.00,
"CA002203100","1953-12-22",28.04,-5.98,0.00,0.00,
"CA002203100","1953-12-23",19.94,10.94,33.00,33.00,
"CA002203100","1953-12-24",5.00,5.00,0.00,0.00,
"CA002203100","1953-12-25",1.94,-5.08,46.00,46.00,
"CA002203100","1953-12-26",1.04,-3.10,20.00,20.00,
"CA002203100","1953-12-27",-0.04,-14.98,0.00,0.00,
"CA002203100","1953-12-28",-7.06,-32.08,0.00,0.00,
"CA002203100","1953-12-29",-12.10,-30.10,5.00,5.00,
"CA002203100","1953-12-30",-21.10,-30.10,0.00,0.00,
"CA002203100","1953-12-31",-25.06,-32.98,0.00,0.00,
"CA002203100","1954-01-01",-36.04,-47.02,0.00,0.00,
"CA002203100","1954-01-02",-27.04,-50.98,0.00,0.00,
"CA002203100","1954-01-03",-25.06,-41.98,8.00,8.00,
"CA002203100","1954-01-04",-32.98,-45.04,0.00,0.00,
"CA002203100","1954-01-05",-28.12,-41.98,13.00,13.00,
"CA002203100","1954-01-06",-21.10,-40.00,0.00,0.00,
"CA002203100","1954-01-07",-10.12,-25.96,0.00,0.00,
"CA002203100","1954-01-08",1.94,-21.10,0.00,0.00,
"CA002203100","1954-01-09",3.92,-11.02,0.00,0.00,
"CA002203100","1954-01-10",1.94,-16.96,0.00,0.00,
"CA002203100","1954-01-11",-0.04,-16.96,46.00,46.00,
"CA002203100","1954-01-12",-9.04,-20.02,0.00,0.00,
"CA002203100","1954-01-13",-18.04,-34.06,0.00,0.00,
"CA002203100","1954-01-14",-25.96,-32.98,0.00,0.00,
"CA002203100","1954-01-15",-10.12,-36.04,0.00,0.00,
"CA002203100","1954-01-16",-9.04,-22.00,0.00,0.00,
"CA002203100","1954-01-17",-2.02,-25.06,0.00,0.00,
"CA002203100","1954-01-18",-13.00,-25.96,0.00,0.00,
"CA002203100","1954-01-19",-34.06,-40.00,0.00,0.00,
"CA002203100","1954-01-20",-36.04,-41.08,0.00,0.00,
"CA002203100","1954-01-21",-21.10,-36.04,0.00,0.00,
"CA002203100","1954-01-22",-18.04,-28.12,0.00,0.00,
"CA002203100","1954-01-23",-23.08,-25.06,0.00,0.00,
"CA002203100","1954-01-24",-27.04,-41.08,0.00,0.00,
"CA002203100","1954-01-25",-23.98,-32.08,0.00,0.00,
"CA002203100","1954-01-26",-25.06,-36.04,0.00,0.00,
"CA002203100","1954-01-27",-21.10,-45.04,0.00,0.00,
"CA002203100","1954-01-28",-23.08,-41.08,0.00,0.00,
"CA002203100","1954-01-29",-10.12,-38.02,0.00,0.00,
"CA002203100","1954-01-30",35.06,-31.00,10.00,10.00,
"CA002203100","1954-01-31",21.92,-0.04,0.00,0.00,
"CA002203100","1954-02-01",19.94,-7.06,0.00,0.00,
"CA002203100","1954-02-02",42.98,-4.00,0.00,0.00,
"CA002203100","1954-02-03",17.06,1.04,0.00,0.00,
"CA002203100","1954-02-04",30.92,-0.04,0.00,0.00,
"CA002203100","1954-02-05",42.08,-2.02,0.00,0.00,
"CA002203100","1954-02-06",48.02,19.94,0.00,0.00,
"CA002203100","1954-02-07",33.98,17.96,0.00,0.00,
"CA002203100","1954-02-08",26.06,17.96,25.00,25.00,
"CA002203100","1954-02-09",8.06,-5.98,0.00,0.00,
"CA002203100","1954-02-10",-14.98,-28.12,0.00,0.00,
"CA002203100","1954-02-11",1.04,-23.98,0.00,0.00,
"CA002203100","1954-02-12",-14.08,-25.06,0.00,0.00,
"CA002203100","1954-02-13",-22.00,-40.00,0.00,0.00,
"CA002203100","1954-02-14",-18.04,-25.96,0.00,0.00,
"CA002203100","1954-02-15",-11.02,-29.02,0.00,0.00,
"CA002203100","1954-02-16",-9.04,-32.08,0.00,0.00,
"CA002203100","1954-02-17",-7.06,-29.02,23.00,23.00,
"CA002203100","1954-02-18",-9.04,-23.08,18.00,18.00,
"CA002203100","1954-02-19",-5.98,-21.10,0.00,0.00,
"CA002203100","1954-02-20",-3.10,-34.06,0.00,0.00,
"CA002203100","1954-02-21",14.00,-27.04,0.00,0.00,
"CA002203100","1954-02-22",28.04,3.02,0.00,0.00,
"CA002203100","1954-02-23",39.02,12.02,0.00,0.00,
"CA002203100","1954-02-24",17.96,-16.06,0.00,0.00,
"CA002203100","1954-02-25",26.06,-0.94,0.00,0.00,
"CA002203100","1954-02-26",-12.10,-20.02,0.00,0.00,
"CA002203100","1954-02-27",-14.08,-25.96,0.00,0.00,
"CA002203100","1954-02-28",-16.06,-32.08,0.00,0.00,
"CA002203100","1954-03-01",1.94,-28.12,0.00,0.00,
"CA002203100","1954-03-02",12.02,-23.08,0.00,0.00,
"CA002203100","1954-03-03",35.06,3.02,0.00,0.00,
"CA002203100","1954-03-04",35.96,19.94,0.00,0.00,
"CA002203100","1954-03-05",12.02,-0.04,25.00,25.00,
"CA002203100","1954-03-06",8.06,-12.10,0.00,0.00,
"CA002203100","1954-03-07",28.94,-9.04,0.00,0.00,
"CA002203100","1954-03-08",35.06,3.02,0.00,0.00,
"CA002203100","1954-03-09",32.00,5.90,0.00,0.00,
"CA002203100","1954-03-10",26.06,14.90,0.00,0.00,
"CA002203100","1954-03-11",21.92,3.02,0.00,0.00,
"CA002203100","1954-03-12",39.02,12.92,0.00,0.00,
"CA002203100","1954-03-13",39.02,15.98,0.00,0.00,
"CA002203100","1954-03-14",24.98,8.96,76.00,76.00,
"CA002203100","1954-03-15",3.92,-0.04,25.00,25.00,
"CA002203100","1954-03-16",10.94,-13.00,0.00,0.00,
"CA002203100","1954-03-17",30.92,-5.08,0.00,0.00,
"CA002203100","1954-03-18",28.94,1.04,20.00,20.00,
"CA002203100","1954-03-19",15.98,8.06,0.00,0.00,
"CA002203100","1954-03-20",19.94,-10.12,0.00,0.00,
"CA002203100","1954-03-21",33.98,-9.04,0.00,0.00,
"CA002203100","1954-03-22",32.00,10.94,0.00,0.00,
"CA002203100","1954-03-23",24.08,3.92,3.00,3.00,
"CA002203100","1954-03-24",28.94,1.94,0.00,0.00,
"CA002203100","1954-03-25",3.92,-4.00,0.00,0.00,
"CA002203100","1954-03-26",-0.04,-25.06,15.00,15.00,
"CA002203100","1954-03-27",8.96,-22.00,25.00,25.00,
"CA002203100","1954-03-28",14.00,-14.08,0.00,0.00,
"CA002203100","1954-03-29",10.94,-11.02,0.00,0.00,
"CA002203100","1954-03-30",14.00,-7.96,0.00,0.00,
"CA002203100","1954-03-31",-13.00,-20.02,3.00,3.00,
"CA002203100","1954-04-01",-14.08,-34.06,0.00,0.00,
"CA002203100","1954-04-02",5.90,-30.10,0.00,0.00,
"CA002203100","1954-04-03",12.02,-11.02,0.00,0.00,
"CA002203100","1954-04-04",-2.02,-9.04,15.00,15.00,
"CA002203100","1954-04-05",-11.02,-32.08,0.00,0.00,
"CA002203100","1954-04-06",-4.00,-32.08,0.00,0.00,
"CA002203100","1954-04-07",12.92,-22.00,0.00,0.00,
"CA002203100","1954-04-08",21.02,-16.06,0.00,0.00,
"CA002203100","1954-04-09",26.96,-5.08,5.00,5.00,
"CA002203100","1954-04-10",37.94,14.00,0.00,0.00,
"CA002203100","1954-04-11",26.06,15.98,0.00,0.00,
"CA002203100","1954-04-12",33.08,1.94,0.00,0.00,
"CA002203100","1954-04-13",44.06,12.92,3.00,3.00,
"CA002203100","1954-04-14",15.98,8.06,3.00,3.00,
"CA002203100","1954-04-15",19.04,-5.08,0.00,0.00,
"CA002203100","1954-04-16",23.00,1.04,13.00,13.00,
"CA002203100","1954-04-17",14.00,-2.02,0.00,0.00,
"CA002203100","1954-04-18",15.98,-2.02,0.00,0.00,
"CA002203100","1954-04-19",26.06,-4.00,0.00,0.00,
"CA002203100","1954-04-20",35.06,3.92,0.00,0.00,
"CA002203100","1954-04-21",39.02,3.92,0.00,0.00,
"CA002203100","1954-04-22",14.00,1.94,0.00,0.00,
"CA002203100","1954-04-23",24.08,1.94,0.00,0.00,
"CA002203100","1954-04-24",14.00,3.92,0.00,0.00,
"CA002203100","1954-04-25",12.92,-7.96,0.00,0.00,
"CA002203100","1954-04-26",12.92,-7.96,5.00,5.00,
"CA002203100","1954-04-27",14.00,-5.98,3.00,3.00,
"CA002203100","1954-04-28",14.00,-10.12,0.00,0.00,
"CA002203100","1954-04-29",26.06,-0.04,0.00,0.00,
"CA002203100","1954-04-30",28.94,5.00,0.00,0.00,
"CA002203100","1954-05-01",30.02,1.94,0.00,0.00,
"CA002203100","1954-05-02",41.00,5.90,0.00,0.00,
"CA002203100","1954-05-03",53.06,14.00,0.00,0.00,
"CA002203100","1954-05-04",51.08,24.98,0.00,0.00,
"CA002203100","1954-05-05",55.94,28.94,0.00,0.00,
"CA002203100","1954-05-06",49.10,28.04,0.00,0.00,
"CA002203100","1954-05-07",42.98,26.96,0.00,0.00,
"CA002203100","1954-05-08",51.98,19.94,0.00,0.00,
"CA002203100","1954-05-09",50.00,30.92,0.00,0.00,
"CA002203100","1954-05-10",50.00,32.00,0.00,0.00,
"CA002203100","1954-05-11",51.08,30.92,0.00,0.00,
"CA002203100","1954-05-12",50.00,26.06,0.00,0.00,
"CA002203100","1954-05-13",39.02,28.04,0.00,0.00,
"CA002203100","1954-05-14",44.06,30.02,25.00,0.00,
"CA002203100","1954-05-15",51.98,28.94,0.00,0.00,
"CA002203100","1954-05-16",64.94,32.00,25.00,0.00,
"CA002203100","1954-05-17",53.06,33.98,0.00,0.00,
"CA002203100","1954-05-18",64.94,32.00,8.00,0.00,
"CA002203100","1954-05-19",55.04,37.04,56.00,0.00,
"CA002203100","1954-05-20",46.04,32.00,41.00,0.00,
"CA002203100","1954-05-21",39.02,23.00,0.00,0.00,
"CA002203100","1954-05-22",57.02,26.06,0.00,0.00,
"CA002203100","1954-05-23",48.02,35.06,0.00,0.00,
"CA002203100","1954-05-24",60.08,30.92,0.00,0.00,
"CA002203100","1954-05-25",68.00,39.02,0.00,0.00,
"CA002203100","1954-05-26",71.96,44.06,0.00,0.00,
"CA002203100","1954-05-27",76.10,44.06,0.00,0.00,
"CA002203100","1954-05-28",60.08,44.96,0.00,0.00,
"CA002203100","1954-05-29",62.96,44.06,0.00,0.00,
"CA002203100","1954-05-30",64.94,37.04,0.00,0.00,
"CA002203100","1954-05-31",66.02,37.94,0.00,0.00,
"CA002203100","1954-06-01",68.00,37.94,0.00,0.00,
"CA002203100","1954-06-02",67.10,41.00,0.00,0.00,
"CA002203100","1954-06-03",74.12,44.06,0.00,0.00,
"CA002203100","1954-06-04",71.96,44.96,0.00,0.00,
"CA002203100","1954-06-05",57.02,39.92,0.00,0.00,
"CA002203100","1954-06-06",60.08,41.00,0.00,0.00,
"CA002203100","1954-06-07",64.04,33.08,0.00,0.00,
"CA002203100","1954-06-08",67.10,41.00,0.00,0.00,
"CA002203100","1954-06-09",60.08,39.92,0.00,0.00,
"CA002203100","1954-06-10",80.06,42.08,0.00,0.00,
"CA002203100","1954-06-11",82.04,42.08,0.00,0.00,
"CA002203100","1954-06-12",80.96,51.98,0.00,0.00,
"CA002203100","1954-06-13",82.04,51.98,10.00,0.00,
"CA002203100","1954-06-14",74.12,53.96,0.00,0.00,
"CA002203100","1954-06-15",73.04,48.02,0.00,0.00,
"CA002203100","1954-06-16",71.96,51.08,0.00,0.00,
"CA002203100","1954-06-17",62.06,46.04,0.00,0.00,
"CA002203100","1954-06-18",67.10,42.98,0.00,0.00,
"CA002203100","1954-06-19",66.02,41.00,0.00,0.00,
"CA002203100","1954-06-20",66.02,35.96,0.00,0.00,
"CA002203100","1954-06-21",75.02,41.00,0.00,0.00,
"CA002203100","1954-06-22",74.12,55.04,0.00,0.00,
"CA002203100","1954-06-23",66.02,42.98,0.00,0.00,
"CA002203100","1954-06-24",73.04,35.96,28.00,0.00,
"CA002203100","1954-06-25",62.96,37.94,0.00,0.00,
"CA002203100","1954-06-26",64.94,44.06,0.00,0.00,
"CA002203100","1954-06-27",74.12,35.96,0.00,0.00,
"CA002203100","1954-06-28",73.04,48.02,0.00,0.00,
"CA002203100","1954-06-29",82.04,50.00,0.00,0.00,
"CA002203100","1954-06-30",86.00,53.96,0.00,0.00,
"CA002203100","1954-07-01",83.12,55.04,0.00,0.00,
"CA002203100","1954-07-02",84.02,51.98,0.00,0.00,
"CA002203100","1954-07-03",82.04,49.10,0.00,0.00,
"CA002203100","1954-07-04",83.12,57.02,0.00,0.00,
"CA002203100","1954-07-05",82.04,57.02,48.00,0.00,
"CA002203100","1954-07-06",74.12,57.02,0.00,0.00,
"CA002203100","1954-07-07",80.96,51.08,0.00,0.00,
"CA002203100","1954-07-08",77.00,60.08,0.00,0.00,
"CA002203100","1954-07-09",77.00,51.98,30.00,0.00,
"CA002203100","1954-07-10",71.96,50.00,64.00,0.00,
"CA002203100","1954-07-11",76.10,51.98,0.00,0.00,
"CA002203100","1954-07-12",64.04,53.96,0.00,0.00,
"CA002203100","1954-07-13",62.96,51.98,0.00,0.00,
"CA002203100","1954-07-14",71.06,44.06,0.00,0.00,
"CA002203100","1954-07-15",76.10,49.10,13.00,0.00,
"CA002203100","1954-07-16",73.04,51.98,0.00,0.00,
"CA002203100","1954-07-17",73.04,51.98,0.00,0.00,
"CA002203100","1954-07-18",74.12,49.10,51.00,0.00,
"CA002203100","1954-07-19",80.96,51.08,0.00,0.00,
"CA002203100","1954-07-20",78.08,53.06,0.00,0.00,
"CA002203100","1954-07-21",76.10,55.04,0.00,0.00,
"CA002203100","1954-07-22",71.96,48.02,13.00,0.00,
"CA002203100","1954-07-23",55.04,46.04,409.00,0.00,
"CA002203100","1954-07-24",46.04,42.08,0.00,0.00,
"CA002203100","1954-07-25",50.00,42.08,0.00,0.00,
"CA002203100","1954-07-26",55.94,46.04,0.00,0.00,
"CA002203100","1954-07-27",59.00,49.10,0.00,0.00,
"CA002203100","1954-07-28",,41.00,0.00,0.00,
"CA002203100","1954-07-29",,39.92,0.00,0.00,
"CA002203100","1954-07-30",,44.96,18.00,0.00,
"CA002203100","1954-07-31",,50.00,0.00,0.00,
"CA002203100","1954-08-01",,39.92,0.00,0.00,
"CA002203100","1954-08-02",,50.00,0.00,0.00,
"CA002203100","1954-08-03",,49.10,0.00,0.00,
"CA002203100","1954-08-04",,44.96,0.00,0.00,
"CA002203100","1954-08-05",,46.94,0.00,0.00,
"CA002203100","1954-08-06",,51.08,152.00,0.00,
"CA002203100","1954-08-07",,53.96,30.00,0.00,
"CA002203100","1954-08-08",,55.04,107.00,0.00,
"CA002203100","1954-08-09",,58.10,23.00,0.00,
"CA002203100","1954-08-10",,50.00,0.00,0.00,
"CA002203100","1954-08-11",,49.10,0.00,0.00,
"CA002203100","1954-08-12",,50.00,0.00,0.00,
"CA002203100","1954-08-13",,44.06,0.00,0.00,
"CA002203100","1954-08-14",,46.04,0.00,0.00,
"CA002203100","1954-08-15",,42.98,0.00,0.00,
"CA002203100","1954-08-16",,44.06,0.00,0.00,
"CA002203100","1954-08-17",,46.94,264.00,0.00,
"CA002203100","1954-08-18",,51.98,97.00,0.00,
"CA002203100","1954-08-19",,51.98,8.00,0.00,
"CA002203100","1954-08-20",,51.98,20.00,0.00,
"CA002203100","1954-08-21",,51.08,0.00,0.00,
"CA002203100","1954-08-22",,51.98,56.00,0.00,
"CA002203100","1954-08-23",,50.00,36.00,0.00,
"CA002203100","1954-08-24",,46.04,0.00,0.00,
"CA002203100","1954-08-25",,44.06,0.00,0.00,
"CA002203100","1954-08-26",,44.96,0.00,0.00,
"CA002203100","1954-08-27",,41.00,0.00,0.00,
"CA002203100","1954-08-28",,49.10,0.00,0.00,
"CA002203100","1954-08-29",,53.06,0.00,0.00,
"CA002203100","1954-08-30",,51.98,0.00,0.00,
"CA002203100","1954-08-31",,39.92,0.00,0.00,
"CA002203100","1954-09-01",,42.08,61.00,0.00,
"CA002203100","1954-09-02",,48.02,0.00,0.00,
"CA002203100","1954-09-03",,39.02,5.00,0.00,
"CA002203100","1954-09-04",,35.06,0.00,0.00,
"CA002203100","1954-09-05",,33.08,0.00,0.00,
"CA002203100","1954-09-06",,44.96,0.00,0.00,
"CA002203100","1954-09-07",,48.02,0.00,0.00,
"CA002203100","1954-09-08",,44.96,0.00,0.00,
"CA002203100","1954-09-09",,42.08,0.00,0.00,
"CA002203100","1954-09-10",,44.06,0.00,0.00,
"CA002203100","1954-09-11",,42.08,0.00,0.00,
"CA002203100","1954-09-12",,42.08,3.00,0.00,
"CA002203100","1954-09-13",,46.94,28.00,0.00,
"CA002203100","1954-09-14",,41.00,10.00,0.00,
"CA002203100","1954-09-15",,32.00,0.00,0.00,
"CA002203100","1954-09-16",,26.96,0.00,0.00,
"CA002203100","1954-09-17",55.04,33.08,0.00,0.00,
"CA002203100","1954-09-18",55.94,32.00,0.00,0.00,
"CA002203100","1954-09-19",41.00,32.00,0.00,0.00,
"CA002203100","1954-09-20",46.94,26.06,0.00,0.00,
"CA002203100","1954-09-21",55.04,33.98,0.00,0.00,
"CA002203100","1954-09-22",60.98,41.00,43.00,0.00,
"CA002203100","1954-09-23",51.98,33.08,0.00,0.00,
"CA002203100","1954-09-24",55.94,30.02,0.00,0.00,
"CA002203100","1954-09-25",66.02,,76.00,0.00,
"CA002203100","1954-09-26",46.94,44.06,15.00,0.00,
"CA002203100","1954-09-27",42.08,37.04,13.00,0.00,
"CA002203100","1954-09-28",33.98,28.94,23.00,18.00,
"CA002203100","1954-09-29",37.04,28.94,10.00,0.00,
"CA002203100","1954-09-30",41.00,28.04,0.00,0.00,
"CA002203100","1954-10-01",33.98,28.04,66.00,66.00,
"CA002203100","1954-10-02",33.08,30.02,23.00,23.00,
"CA002203100","1954-10-03",28.94,24.98,51.00,51.00,
"CA002203100","1954-10-04",30.02,21.02,28.00,28.00,
"CA002203100","1954-10-05",39.02,14.90,0.00,0.00,
"CA002203100","1954-10-06",42.08,19.94,0.00,0.00,
"CA002203100","1954-10-07",46.04,19.94,0.00,0.00,
"CA002203100","1954-10-08",42.08,23.00,0.00,0.00,
"CA002203100","1954-10-09",57.02,26.06,0.00,0.00,
"CA002203100","1954-10-10",55.04,30.02,0.00,0.00,
"CA002203100","1954-10-11",41.00,37.04,28.00,0.00,
"CA002203100","1954-10-12",33.08,30.02,84.00,84.00,
"CA002203100","1954-10-13",30.02,28.04,0.00,0.00,
"CA002203100","1954-10-14",33.08,19.04,0.00,0.00,
"CA002203100","1954-10-15",42.08,26.96,0.00,0.00,
"CA002203100","1954-10-16",48.02,26.06,0.00,0.00,
"CA002203100","1954-10-17",53.96,42.08,0.00,0.00,
"CA002203100","1954-10-18",55.94,37.04,0.00,0.00,
"CA002203100","1954-10-19",49.10,32.00,0.00,0.00,
"CA002203100","1954-10-20",51.98,42.08,0.00,0.00,
"CA002203100","1954-10-21",39.02,30.92,10.00,0.00,
"CA002203100","1954-10-22",32.00,28.94,0.00,0.00,
"CA002203100","1954-10-23",35.06,23.00,0.00,0.00,
"CA002203100","1954-10-24",39.92,21.92,0.00,0.00,
"CA002203100","1954-10-25",42.98,30.92,0.00,0.00,
"CA002203100","1954-10-26",41.00,26.06,0.00,0.00,
"CA002203100","1954-10-27",35.96,28.94,5.00,5.00,
"CA002203100","1954-10-28",37.94,28.04,0.00,0.00,
"CA002203100","1954-10-29",39.92,30.02,0.00,0.00,
"CA002203100","1954-10-30",30.92,26.06,13.00,13.00,
"CA002203100","1954-10-31",33.08,12.02,0.00,0.00,
"CA002203100","1954-11-01",49.10,21.02,0.00,0.00,
"CA002203100","1954-11-02",39.92,30.92,0.00,0.00,
"CA002203100","1954-11-03",33.08,28.04,0.00,0.00,
"CA002203100","1954-11-04",35.06,26.96,0.00,0.00,
"CA002203100","1954-11-05",30.92,26.06,10.00,10.00,
"CA002203100","1954-11-06",30.92,26.06,25.00,25.00,
"CA002203100","1954-11-07",30.92,19.04,0.00,0.00,
"CA002203100","1954-11-08",30.02,19.94,0.00,0.00,
"CA002203100","1954-11-09",32.00,23.00,157.00,157.00,
"CA002203100","1954-11-10",17.06,12.02,97.00,97.00,
"CA002203100","1954-11-11",8.06,3.92,13.00,13.00,
"CA002203100","1954-11-12",12.02,-3.10,33.00,33.00,
"CA002203100","1954-11-13",6.98,3.92,0.00,0.00,